Regional Weather Roundup
Issued by NWS Charleston, WV

Home | Current Version | Previous Version | Graphics & Text | Print | Product List | Glossary On
Versions: 1 2 3 4 5 6 7 8 9 10 11 12 13 14 15 16 17 18 19 20 21 22 23 24 25 26 27
000
ASUS41 KRLX 160310
RWRRLX
West Virginia Regional Weather Roundup
National Weather Service Charleston WV
1100 PM EDT SUN OCT 15 2017

Note: "fair" indicates few or no clouds below 12,000 feet with no
significant weather and/or obstructions to visibility.

WVZ003-160400-
Northern Panhandle of West Virginia

CITY           SKY/WX    TMP DP  RH WIND       PRES   REMARKS
WHEELING       PTCLDY    55  46  71 NW13G22   30.04R
$$

WVZ009-160400-
Northwest West Virginia

CITY           SKY/WX    TMP DP  RH WIND       PRES   REMARKS
PARKERSBURG    PTCLDY    56  46  69 NW8       30.11R
$$

WVZ006-160400-
Western West Virginia

CITY           SKY/WX    TMP DP  RH WIND       PRES   REMARKS
HUNTINGTON     CLOUDY    55  43  63 NW12G23   30.15R
$$

WVZ015-160400-
West Central West Virginia

CITY           SKY/WX    TMP DP  RH WIND       PRES   REMARKS
CHARLESTON     CLOUDY    57  52  83 NW10G17   30.11R
$$

WVZ022-031-160400-
North Central West Virginia

CITY           SKY/WX    TMP DP  RH WIND       PRES   REMARKS
CLARKSBURG     LGT RAIN  58  51  78 NW10      30.04R
MORGANTOWN     CLOUDY    58  52  80 NW6       30.05R
$$

WVZ025-035-042-045-160400-
Southern West Virginia

CITY           SKY/WX    TMP DP  RH WIND       PRES   REMARKS
BECKLEY        RAIN      58  56  93 N12       30.08R FOG
LOGAN          LGT RAIN  57  55  94 N9G20     30.10R
BLUEFIELD      LGT RAIN  62  61  96 VRB7      30.08R FOG
LEWISBURG      CLOUDY    62  58  87 N8        30.05R
$$

WVZ047-160400-
Northern Mountains of West Virginia

CITY           SKY/WX    TMP DP  RH WIND       PRES   REMARKS
ELKINS         CLOUDY    58  53  84 NW6       30.05R
$$

WVZ052-160400-
Eastern Panhandle of West Virginia

CITY           SKY/WX    TMP DP  RH WIND       PRES   REMARKS
MARTINSBURG    LGT RAIN  68  64  87 NW10G22   29.89R
PETERSBURG     CLOUDY    66  58  74 N9        29.97R
$$




USA.gov is the U.S. government's official web portal to all federal, state and local government web resources and services.